Temp
15 15 15 15 15 14 14 13 12 12 12 11 10 10 9 9 8 9 8 8 8 7 6 6 6 6 5 5 4 5 4 5 5 6 6 6 5 3 3 4 5 4 5
16 15 15 15 15 15 14 13 13 12 11 11 10 11 9 8 8 8 8 8 8 7 7 7 6 6 5 5 5 4 4 5 5 5 4 5 4 3 3 3 4 4 5
16 16 16 15 15 14 13 13 13 12 11 10 10 10 8 8 8 8 8 8 7 6 6 6 6 5 5 5 4 5 4 5 5 4 4 4 4 3 4 4 3 4 4
16 16 15 15 15 14 14 14 13 13 12 11 10 9 8 8 8 8 8 8 7 6 6 5 5 4 4 4 3 4 4 4 4 4 3 4 4 4 3 4 5 4 5
17 16 15 15 15 15 14 14 13 13 12 11 10 9 8 8 8 8 8 7 6 6 5 4 4 4 3 4 4 3 3 4 3 2 3 3 5 3 3 4 4 5 5
17 16 16 16 15 15 14 14 14 13 12 10 10 9 9 9 8 8 7 6 6 5 5 4 4 3 3 3 4 3 3 2 1 1 1 3 3 2 3 4 4 3 4
17 17 16 16 15 15 14 14 13 13 12 11 10 9 8 8 7 7 6 6 5 5 4 4 3 2 3 4 4 3 3 2 1 0 1 1 1 2 3 4 4 4 4
17 16 16 15 15 14 14 13 13 12 12 11 10 9 8 8 7 6 6 5 5 5 4 3 3 2 3 4 4 4 3 3 2 0 0 -0 0 2 3 3 4 4 3
16 16 15 15 15 14 13 13 12 12 12 12 10 8 7 7 6 6 5 5 5 4 3 2 3 3 4 4 4 4 3 3 2 -0 -0 -0 0 2 3 3 3 4 3
16 15 15 14 13 13 12 12 12 12 11 10 9 8 7 7 6 5 5 5 4 3 2 2 3 3 4 4 4 3 3 3 3 1 -0 -0 0 2 3 3 3 3 4
15 15 14 13 12 12 12 11 11 10 11 11 8 7 7 6 5 5 4 4 4 3 2 2 3 3 3 4 3 3 3 3 2 1 -1 -0 -0 1 2 3 3 3 3
14 13 12 12 12 12 12 11 10 8 8 8 7 7 6 5 5 4 4 4 4 3 3 3 3 3 3 3 3 3 3 2 2 2 1 0 -1 0 1 2 2 3 3
12 12 12 13 11 11 11 9 8 7 6 6 5 6 5 5 5 4 4 4 3 3 3 3 4 3 3 3 3 3 2 2 2 2 2 1 1 0 -1 0 1 2 2
13 12 11 11 10 10 10 9 9 7 6 6 5 4 4 4 5 3 4 4 3 3 3 3 4 3 3 3 3 2 2 2 2 2 2 2 2 1 -0 1 0 1 2
11 11 10 10 10 9 8 8 8 8 6 6 6 4 4 4 4 3 3 3 3 2 2 3 3 3 3 3 2 2 2 2 2 2 2 2 2 2 2 1 1 0 1
10 10 9 8 8 7 7 6 7 6 5 5 4 4 3 3 3 3 3 3 2 2 2 2 2 2 2 2 2 2 2 2 2 2 2 2 2 2 2 2 2 2 1
10 10 9 9 8 8 8 7 6 5 5 4 4 4 3 3 3 3 3 2 2 2 2 2 2 2 2 2 2 2 2 3 3 3 3 3 3 3 2 2 3 2 2
10 9 9 9 9 8 7 6 5 4 3 4 3 3 3 3 3 3 2 2 2 2 1 2 2 2 2 2 2 2 2 3 2 2 3 3 2 3 3 3 3 3 2
9 9 8 8 8 7 6 5 4 4 4 4 4 3 3 2 2 2 2 2 1 1 1 2 2 2 2 2 2 2 2 2 2 2 2 3 3 3 3 3 3 3 2
8 7 7 7 6 5 5 4 4 3 3 4 3 3 2 2 2 2 1 1 1 1 2 1 2 2 2 2 1 1 2 2 2 2 2 2 2 2 2 3 3 3 3
6 7 7 6 3 2 4 3 4 3 3 3 3 2 2 2 2 1 0 1 1 1 1 1 2 2 2 1 1 1 1 1 1 2 2 2 2 2 2 2 2 2 2
4 3 5 3 2 2 3 2 3 2 3 2 2 2 2 2 1 0 0 0 1 1 1 1 1 1 1 1 1 1 1 1 1 1 1 1 2 2 2 2 2 2 2
3 2 2 3 2 2 2 1 3 2 2 2 2 2 2 1 -0 -0 -0 -0 0 1 1 1 1 1 1 0 0 0 0 1 1 1 1 1 1 2 2 2 2 2 2
1 2 2 2 2 1 3 3 3 3 2 2 1 1 1 1 0 -0 -0 0 1 1 1 1 1 0 0 0 0 0 0 0 1 1 1 1 1 2 2 2 1 1 1
1 1 1 1 2 2 3 2 1 1 2 1 1 1 0 -0 -0 -0 -0 0 0 0 0 1 0 0 0 0 0 -0 0 0 0 1 1 1 1 1 1 1 1 1 1
2 3 3 3 2 1 2 1 1 1 1 1 1 1 0 0 -0 -0 -0 0 0 0 0 0 0 0 -0 -0 -0 -0 0 0 0 1 1 1 1 1 1 1 1 1 0
Height
3188 3190 3191 3193 3194 3194 3193 3194 3194 3194 3193 3192 3190 3190 3189 3186 3182 3178 3175 3171 3166 3162 3158 3155 3152 3147 3142 3136 3130 3124 3118 3112 3103 3100 3096 3090 3080 3066 3057 3051 3042 3039 3037
3184 3185 3187 3188 3189 3188 3190 3189 3189 3189 3186 3183 3184 3183 3180 3181 3178 3172 3168 3164 3160 3156 3152 3149 3145 3141 3136 3129 3123 3118 3112 3107 3098 3088 3084 3079 3070 3055 3045 3040 3036 3032 3029
3177 3179 3181 3182 3183 3183 3184 3185 3184 3182 3180 3177 3178 3178 3172 3176 3172 3167 3162 3159 3155 3151 3148 3144 3140 3134 3129 3124 3117 3110 3104 3099 3093 3082 3072 3069 3058 3045 3036 3031 3026 3023 3020
3170 3172 3175 3177 3178 3178 3178 3177 3177 3175 3174 3170 3168 3169 3169 3169 3165 3160 3156 3153 3149 3147 3144 3139 3134 3129 3123 3117 3111 3104 3098 3092 3084 3075 3066 3056 3046 3034 3024 3016 3015 3013 3009
3165 3167 3169 3171 3172 3173 3172 3171 3171 3169 3168 3166 3163 3162 3162 3161 3157 3155 3151 3147 3144 3142 3139 3135 3129 3123 3117 3112 3104 3097 3091 3084 3077 3068 3059 3046 3033 3021 3014 3008 3002 3000 3000
3159 3162 3164 3166 3166 3167 3166 3165 3164 3162 3162 3160 3159 3158 3156 3154 3151 3148 3145 3142 3140 3137 3134 3130 3125 3118 3111 3106 3100 3094 3087 3079 3072 3063 3052 3037 3023 3013 3005 2999 2994 2988 2990
3153 3155 3158 3159 3160 3159 3159 3159 3158 3157 3156 3156 3154 3153 3151 3147 3145 3143 3140 3138 3136 3131 3127 3122 3118 3114 3107 3102 3097 3090 3084 3078 3070 3059 3047 3032 3017 3008 3000 2993 2991 2988 2988
3148 3150 3152 3153 3153 3153 3153 3154 3154 3153 3152 3151 3148 3145 3141 3139 3138 3136 3135 3133 3130 3126 3121 3117 3111 3108 3102 3097 3092 3086 3080 3074 3067 3058 3045 3030 3017 3007 2998 2994 2988 2988 2987
3144 3145 3146 3147 3147 3148 3148 3148 3148 3146 3144 3142 3140 3140 3138 3134 3132 3132 3129 3127 3124 3121 3115 3109 3106 3104 3098 3094 3087 3082 3077 3071 3064 3056 3045 3032 3015 3007 3000 2996 2991 2988 2986
3138 3140 3141 3142 3142 3142 3142 3142 3140 3137 3133 3137 3135 3132 3131 3130 3127 3127 3125 3122 3119 3116 3110 3104 3100 3098 3094 3089 3084 3078 3073 3067 3059 3052 3044 3032 3015 3006 3001 2996 2993 2991 2988
3131 3131 3132 3134 3135 3136 3137 3134 3132 3130 3130 3126 3129 3126 3126 3124 3123 3123 3120 3117 3115 3110 3107 3103 3097 3094 3091 3086 3080 3075 3070 3063 3056 3050 3044 3035 3019 3007 3002 2997 2994 2992 2991
3127 3127 3128 3131 3132 3127 3130 3128 3127 3126 3128 3125 3122 3119 3117 3119 3119 3117 3116 3112 3111 3107 3104 3099 3096 3092 3088 3083 3078 3073 3067 3061 3055 3050 3045 3038 3026 3014 3008 3002 2998 2994 2991
3121 3125 3129 3123 3129 3123 3121 3122 3123 3125 3125 3121 3121 3116 3113 3114 3114 3113 3112 3109 3106 3104 3102 3097 3092 3089 3085 3080 3075 3070 3065 3060 3055 3050 3045 3039 3032 3025 3016 3008 3003 2997 2994
3116 3116 3120 3118 3117 3116 3116 3115 3114 3117 3113 3115 3112 3112 3111 3110 3109 3109 3107 3105 3103 3101 3098 3093 3089 3086 3082 3078 3072 3068 3064 3059 3054 3050 3045 3041 3035 3029 3023 3016 3008 3001 2997
3112 3110 3113 3113 3113 3110 3109 3108 3107 3107 3109 3109 3108 3107 3108 3106 3105 3104 3102 3100 3098 3097 3095 3090 3086 3083 3079 3075 3071 3067 3063 3060 3056 3052 3048 3043 3038 3032 3027 3022 3016 3011 3004
3106 3105 3105 3105 3104 3105 3103 3100 3103 3104 3106 3105 3101 3102 3103 3102 3102 3100 3099 3097 3096 3094 3091 3087 3083 3081 3078 3074 3070 3067 3064 3061 3056 3053 3049 3045 3041 3035 3031 3027 3024 3020 3014
3103 3103 3101 3102 3099 3097 3096 3096 3097 3098 3099 3098 3099 3098 3098 3098 3098 3096 3095 3094 3093 3091 3089 3085 3082 3079 3076 3073 3070 3067 3063 3061 3058 3055 3051 3048 3044 3039 3036 3032 3029 3026 3021
3094 3095 3092 3091 3089 3091 3089 3090 3090 3091 3091 3093 3091 3093 3092 3094 3093 3093 3092 3092 3090 3088 3086 3083 3080 3077 3074 3071 3068 3066 3062 3060 3058 3056 3053 3050 3047 3043 3040 3036 3033 3030 3026
3087 3085 3082 3082 3081 3082 3083 3086 3087 3086 3085 3086 3085 3088 3088 3089 3089 3089 3090 3090 3088 3085 3083 3081 3078 3075 3072 3070 3067 3065 3062 3060 3058 3057 3054 3051 3048 3045 3043 3040 3037 3034 3032
3080 3079 3080 3078 3080 3079 3078 3081 3084 3083 3082 3082 3082 3084 3084 3085 3086 3087 3087 3087 3085 3083 3081 3078 3075 3073 3071 3068 3066 3064 3062 3060 3058 3056 3055 3053 3050 3047 3045 3043 3040 3037 3036
3073 3075 3074 3073 3075 3077 3076 3077 3080 3080 3079 3077 3078 3080 3082 3083 3084 3084 3084 3083 3082 3081 3079 3076 3073 3072 3070 3067 3065 3063 3061 3060 3058 3057 3055 3053 3051 3049 3047 3045 3042 3040 3038
3073 3071 3071 3073 3076 3076 3077 3077 3077 3077 3077 3076 3077 3080 3081 3082 3082 3081 3080 3080 3080 3078 3076 3074 3072 3070 3068 3066 3064 3062 3060 3059 3058 3057 3056 3053 3051 3049 3048 3046 3044 3041 3039
3069 3070 3072 3071 3075 3074 3075 3075 3075 3075 3075 3076 3076 3078 3079 3079 3079 3078 3077 3077 3076 3075 3074 3071 3070 3069 3067 3065 3063 3061 3060 3058 3057 3056 3055 3053 3051 3049 3048 3046 3044 3042 3040
3067 3069 3071 3071 3071 3071 3070 3071 3070 3071 3073 3073 3075 3076 3077 3076 3076 3076 3076 3075 3074 3073 3072 3070 3069 3068 3066 3064 3063 3061 3060 3058 3057 3056 3054 3053 3051 3049 3048 3046 3044 3042 3041
3064 3065 3068 3068 3066 3065 3068 3069 3068 3069 3069 3071 3072 3073 3073 3074 3073 3074 3074 3073 3071 3071 3070 3069 3068 3067 3066 3064 3062 3061 3060 3058 3057 3056 3054 3052 3050 3049 3047 3046 3044 3042 3041
3059 3060 3061 3061 3061 3062 3063 3066 3067 3066 3067 3068 3070 3070 3070 3071 3071 3072 3071 3070 3070 3069 3068 3068 3067 3066 3065 3063 3062 3061 3059 3058 3057 3056 3054 3052 3050 3049 3047 3046 3044 3042 3040
Wind_Speed
28 25 24 26 26 25 29 25 26 25 24 24 23 29 27 28 29 28 29 32 37 34 29 29 32 35 38 44 42 39 37 35 40 43 43 44 55 57 47 37 37 31 34
32 32 31 29 29 30 28 29 28 27 30 33 28 33 30 25 29 27 29 32 33 30 28 29 33 37 41 40 39 39 36 34 40 46 42 47 58 51 40 34 27 31 33
35 34 32 31 31 31 28 30 34 37 38 37 35 31 29 29 29 30 31 32 31 28 27 30 35 39 37 37 37 39 37 36 38 43 48 50 57 45 37 35 31 29 31
33 35 33 31 31 32 32 31 30 34 37 41 42 33 25 29 31 32 33 31 28 27 27 32 35 35 40 39 38 36 35 37 39 44 44 52 61 41 35 32 28 33 33
28 30 30 32 32 28 26 24 21 22 24 28 32 31 30 32 33 33 31 27 26 25 28 32 33 35 37 35 35 36 36 38 41 41 47 56 62 41 33 34 32 29 28
23 23 26 28 29 28 23 18 20 21 21 21 25 28 30 33 34 29 27 24 24 26 30 30 31 31 35 34 33 33 33 37 36 39 50 60 61 41 36 28 29 24 22
27 27 29 29 28 23 19 17 19 22 24 25 28 31 31 31 29 25 22 23 25 28 29 31 29 30 33 30 30 30 30 32 30 40 51 61 54 40 40 31 17 14 12
29 29 30 29 25 19 17 17 19 23 27 31 34 33 30 31 26 22 22 22 23 26 28 29 27 31 33 30 30 30 30 32 32 35 50 58 44 38 25 19 14 10 10
31 32 31 27 22 18 15 15 15 19 22 33 31 31 29 29 23 22 21 21 25 26 28 29 26 31 31 28 29 30 28 29 29 30 41 54 38 26 16 17 14 8 6
34 32 29 23 19 15 13 13 30 33 39 34 28 28 29 26 21 20 19 22 25 26 26 28 30 30 29 29 29 29 28 27 28 29 31 53 40 20 16 14 13 10 8
34 33 27 22 17 11 17 25 24 25 29 32 29 28 26 21 19 18 19 21 23 24 21 21 28 28 27 26 27 26 26 27 27 27 29 46 37 34 25 24 15 11 11
32 26 21 18 20 25 26 18 21 21 25 29 28 25 21 17 17 16 19 22 24 21 21 22 25 24 24 24 24 24 24 25 25 25 23 28 44 33 34 26 26 15 9
23 17 19 32 25 22 16 17 20 25 30 31 31 21 18 16 17 17 21 25 21 20 21 23 23 22 22 23 23 23 23 23 23 23 22 22 25 32 35 28 19 20 21
28 23 21 21 14 15 15 23 39 39 35 35 23 19 18 18 18 18 20 23 19 21 21 21 21 20 20 21 22 22 22 22 22 22 22 21 20 19 22 34 24 25 11
20 17 15 16 17 19 27 30 34 38 30 27 23 23 20 19 22 21 22 17 19 20 23 23 19 19 20 20 20 19 19 19 19 19 18 19 19 20 22 24 26 30 17
20 17 17 16 18 24 28 32 35 28 26 25 20 23 19 23 17 18 17 16 17 19 22 19 18 18 18 18 17 16 16 16 16 16 17 17 18 20 22 23 23 22 30
25 33 30 35 34 42 45 37 30 27 27 24 25 28 22 20 17 16 15 15 17 21 18 17 16 17 17 16 14 14 14 14 13 13 13 15 17 18 19 20 20 21 22
39 45 39 42 46 40 29 25 27 21 22 22 23 22 18 15 15 14 14 15 19 20 14 15 16 16 16 14 13 13 12 12 11 11 12 13 15 16 17 19 20 21 21
23 26 24 29 30 24 20 18 19 20 18 15 15 16 14 13 12 12 15 16 17 15 16 13 14 16 16 14 12 11 10 9 8 8 9 10 12 14 16 16 17 17 17
23 24 22 22 19 16 13 10 13 16 15 12 13 11 10 9 10 13 15 15 12 15 15 14 14 15 14 13 12 10 9 8 8 8 8 9 9 11 13 14 14 14 13
19 15 13 9 8 5 8 9 10 11 13 12 9 5 7 10 12 13 15 13 14 16 15 15 14 13 13 12 11 10 9 8 7 7 8 8 9 9 10 11 12 12 13
10 9 7 4 12 11 7 9 10 9 10 10 10 4 8 9 11 13 17 15 16 13 14 13 13 13 12 11 10 9 7 7 7 6 7 7 8 9 10 10 11 11 11
9 8 8 9 11 14 11 12 12 15 13 15 13 7 10 11 13 17 16 15 13 12 12 11 11 11 10 9 8 8 7 7 7 7 7 7 8 9 10 10 10 10 10
7 7 6 7 8 10 11 11 10 11 14 15 13 11 11 13 7 13 11 10 10 10 10 8 8 9 9 8 7 7 7 7 7 7 8 8 9 9 9 10 10 10 10
8 6 8 12 10 12 11 11 10 13 14 13 12 11 9 10 10 12 9 10 10 9 7 7 8 9 9 8 7 6 6 7 7 8 8 9 9 10 10 10 10 10 11
16 13 12 12 13 13 11 12 17 18 13 11 11 13 10 8 8 8 8 10 9 7 6 7 8 8 8 7 7 7 7 7 7 8 8 9 9 10 10 10 11 11 11
Wind_Direction
224 224 237 252 259 261 265 273 276 274 274 280 292 289 289 291 296 300 301 304 303 304 306 310 313 312 315 319 319 318 315 312 312 315 314 317 318 317 311 295 287 276 283
235 241 250 259 264 267 270 269 272 277 275 273 284 297 277 290 293 295 307 307 305 301 304 308 310 312 316 317 321 316 313 311 313 314 319 320 325 315 304 297 279 285 281
244 248 253 259 262 271 273 272 272 274 275 274 277 287 290 290 295 301 309 307 303 299 303 307 312 314 315 315 320 318 316 314 315 315 313 322 328 318 309 302 283 281 280
246 249 252 256 262 269 274 276 275 273 272 274 279 289 288 288 296 301 308 307 300 299 303 308 314 314 315 318 319 316 315 317 320 321 319 326 333 320 312 315 285 275 274
246 242 247 253 259 266 273 281 281 285 287 282 275 285 290 293 296 305 305 301 295 299 305 312 313 313 314 318 321 321 321 322 321 322 330 333 336 326 314 310 304 290 274
241 242 245 253 260 270 274 280 288 289 287 273 277 284 290 295 295 301 302 295 300 305 309 311 313 318 323 324 321 321 322 322 325 325 334 338 338 329 335 322 314 298 269
235 231 238 246 258 261 268 273 278 290 292 295 292 293 292 288 298 293 294 300 306 304 311 312 317 322 324 320 320 321 324 323 327 334 334 344 337 330 327 329 325 331 293
231 231 239 246 253 252 256 277 288 290 291 293 291 290 285 291 294 290 296 304 302 308 311 314 314 322 323 321 322 327 328 325 329 339 346 346 339 335 334 344 335 335 316
233 235 239 245 242 243 266 292 299 298 306 311 292 286 289 296 290 293 298 300 306 314 316 314 314 321 321 323 328 330 330 327 333 341 347 349 340 335 334 333 340 339 327
239 240 241 233 238 251 273 297 318 317 323 302 292 285 293 294 291 295 302 305 310 317 317 322 322 327 322 328 329 331 332 334 341 343 345 355 9 351 354 348 348 349 4
233 232 225 228 238 262 297 313 317 317 319 315 292 287 294 291 299 300 301 308 316 316 317 319 319 321 321 325 329 333 335 342 346 347 349 4 15 27 24 16 5 348 351
230 222 224 235 258 268 290 305 310 309 301 299 291 293 291 293 297 298 303 314 317 312 312 318 319 319 321 326 331 333 340 347 349 345 345 9 12 31 34 27 24 357 346
217 232 254 265 276 289 298 319 331 321 313 305 298 284 292 291 297 299 312 316 312 311 312 316 316 318 322 325 338 338 345 346 348 349 351 346 354 14 25 34 23 5 24
231 240 253 265 271 285 306 322 315 306 291 294 283 277 281 287 296 298 306 305 307 311 312 320 318 321 322 332 340 339 347 348 348 350 352 359 9 14 30 35 33 39 21
240 256 267 279 291 297 311 308 305 293 286 280 240 272 275 291 302 301 308 309 311 314 320 320 321 324 329 336 338 341 348 347 349 351 357 6 16 27 23 27 33 40 43
254 263 280 304 317 309 301 306 296 282 270 275 245 279 284 294 287 296 299 305 307 314 319 322 323 326 332 335 336 340 350 349 350 353 8 15 28 36 33 32 34 42 54
282 285 280 296 313 299 283 288 272 268 270 254 271 274 290 281 288 294 293 300 304 315 314 323 323 326 332 334 337 339 350 351 355 357 10 16 21 32 36 37 38 39 44
285 282 284 286 278 282 279 267 269 260 263 261 266 274 271 274 283 285 291 296 308 310 317 324 323 327 332 331 336 336 348 351 354 356 4 14 18 26 31 33 34 36 35
288 291 294 282 282 277 264 251 254 265 267 268 271 263 264 270 279 285 287 297 316 320 325 325 326 331 331 331 335 335 341 347 350 356 359 7 13 16 21 27 31 33 35
290 284 272 271 265 255 258 244 240 251 269 273 266 264 266 269 275 279 285 308 323 326 324 325 335 334 329 330 333 335 341 344 346 350 353 1 12 15 15 17 21 25 31
289 267 263 264 315 244 271 248 230 259 272 282 278 261 256 266 273 282 296 308 311 321 321 324 334 334 330 332 333 335 345 345 347 344 343 354 2 6 9 11 14 18 18
238 285 250 172 235 237 203 263 275 274 268 257 260 261 263 263 280 274 287 298 308 317 318 324 331 330 327 327 331 336 348 347 351 349 346 353 357 359 360 4 8 11 16
241 226 232 215 206 234 236 237 241 240 248 223 262 244 265 275 289 281 296 301 306 315 320 327 331 336 339 342 343 343 350 352 354 353 352 354 355 357 357 359 3 9 13
225 212 218 227 222 237 253 258 247 244 232 241 254 259 265 298 292 280 283 293 304 313 319 324 332 338 342 347 354 357 356 355 357 355 354 354 356 357 357 0 4 6 7
237 223 228 221 239 264 249 236 236 242 238 236 250 260 280 296 255 260 281 297 311 313 313 323 324 327 329 336 348 356 358 358 357 355 356 358 0 1 1 1 360 359 359
242 250 253 252 250 239 256 216 210 230 242 242 254 275 274 248 253 253 287 302 303 302 303 309 316 320 324 329 335 344 349 353 356 358 2 4 4 1 358 355 354 354 355